Time,TemperatureF,DewpointF,PressureIn,WindDirection,WindDirectionDegrees,WindSpeedMPH,WindSpeedGustMPH,Humidity,HourlyPrecipIn,Conditions,Clouds,dailyrainin,SoftwareType,DateUTC
2013-03-09 00:01:00,59.0,54.0,30.11,SSE,158,0.0,4.0,84,0.00,,,0.00,,2013-03-09 06:01:00,
2013-03-09 00:11:00,59.0,54.0,30.11,SE,144,0.0,5.0,84,0.00,,,0.00,,2013-03-09 06:11:00,
2013-03-09 00:22:00,59.0,54.0,30.11,SE,144,0.0,5.0,84,0.00,,,0.00,,2013-03-09 06:22:00,
2013-03-09 00:32:00,59.0,54.0,30.11,SSE,155,0.0,1.0,85,0.00,,,0.00,,2013-03-09 06:32:00,
2013-03-09 00:42:00,59.0,54.0,30.11,SSE,155,0.0,1.0,85,0.00,,,0.00,,2013-03-09 06:42:00,
2013-03-09 00:52:00,59.0,54.0,30.11,SE,146,1.0,2.0,85,0.00,,,0.00,,2013-03-09 06:52:00,
2013-03-09 01:01:00,59.0,55.0,30.11,SE,138,0.0,2.0,86,0.00,,,0.00,,2013-03-09 07:01:00,
2013-03-09 01:11:00,59.0,55.0,30.11,SE,138,0.0,2.0,86,0.00,,,0.00,,2013-03-09 07:11:00,
2013-03-09 01:21:00,59.0,55.0,30.10,SSE,164,0.0,4.0,87,0.00,,,0.00,,2013-03-09 07:21:00,
2013-03-09 01:31:00,59.0,55.0,30.10,SSE,161,0.0,4.0,88,0.00,,,0.00,,2013-03-09 07:31:00,
2013-03-09 01:41:00,59.0,55.0,30.10,SSE,161,0.0,4.0,88,0.00,,,0.00,,2013-03-09 07:41:00,
2013-03-09 01:52:00,59.0,56.0,30.10,South,176,0.0,1.0,89,0.00,,,0.00,,2013-03-09 07:52:00,
2013-03-09 02:01:00,59.0,56.0,30.09,SE,132,0.0,5.0,89,0.00,,,0.00,,2013-03-09 08:01:00,
2013-03-09 02:11:00,59.0,56.0,30.09,SE,132,0.0,5.0,89,0.00,,,0.00,,2013-03-09 08:11:00,
2013-03-09 02:22:00,60.0,57.0,30.08,SSE,154,0.0,4.0,91,0.00,,,0.00,,2013-03-09 08:22:00,
2013-03-09 02:31:00,60.0,57.0,30.07,SSE,155,0.0,5.0,91,0.00,,,0.00,,2013-03-09 08:31:00,
2013-03-09 02:41:00,60.0,57.0,30.07,SSE,155,0.0,5.0,91,0.00,,,0.00,,2013-03-09 08:41:00,
2013-03-09 02:52:00,60.0,58.0,30.07,SE,134,0.0,2.0,92,0.00,,,0.00,,2013-03-09 08:52:00,
2013-03-09 03:01:00,60.0,58.0,30.06,SSE,158,0.0,2.0,92,0.00,,,0.00,,2013-03-09 09:01:00,
2013-03-09 03:12:00,60.0,58.0,30.06,SSE,158,0.0,2.0,92,0.00,,,0.00,,2013-03-09 09:12:00,
2013-03-09 03:21:00,60.0,58.0,30.06,SE,128,0.0,4.0,93,0.00,,,0.00,,2013-03-09 09:21:00,
2013-03-09 03:31:00,60.0,58.0,30.05,SE,133,0.0,1.0,93,0.00,,,0.00,,2013-03-09 09:31:00,
2013-03-09 03:42:00,60.0,58.0,30.05,SE,133,0.0,1.0,93,0.00,,,0.00,,2013-03-09 09:42:00,
2013-03-09 03:52:00,60.0,58.0,30.05,South,171,0.0,4.0,93,0.00,,,0.00,,2013-03-09 09:52:00,
2013-03-09 04:01:00,61.0,59.0,30.04,SE,140,2.0,5.0,94,0.00,,,0.00,,2013-03-09 10:01:00,
2013-03-09 04:11:00,61.0,59.0,30.04,SE,140,2.0,5.0,94,0.00,,,0.00,,2013-03-09 10:11:00,
2013-03-09 04:21:00,61.0,59.0,30.03,SE,138,1.0,4.0,94,0.00,,,0.00,,2013-03-09 10:21:00,
2013-03-09 04:31:00,61.0,59.0,30.03,SSE,157,0.0,6.0,94,0.00,,,0.00,,2013-03-09 10:31:00,
2013-03-09 04:41:00,61.0,59.0,30.03,SSE,157,0.0,6.0,94,0.00,,,0.00,,2013-03-09 10:41:00,
2013-03-09 04:52:00,61.0,59.0,30.03,SE,138,1.0,7.0,94,0.00,,,0.00,,2013-03-09 10:52:00,
2013-03-09 05:01:00,61.0,59.0,30.03,South,169,0.0,5.0,94,0.00,,,0.00,,2013-03-09 11:01:00,
2013-03-09 05:11:00,61.0,59.0,30.03,South,169,0.0,5.0,94,0.00,,,0.00,,2013-03-09 11:11:00,
2013-03-09 05:21:00,62.0,60.0,30.03,South,176,0.0,5.0,94,0.00,,,0.00,,2013-03-09 11:21:00,
2013-03-09 05:32:00,62.0,60.0,30.04,SSE,155,1.0,7.0,94,0.00,,,0.00,,2013-03-09 11:32:00,
2013-03-09 05:42:00,62.0,60.0,30.04,SSE,155,1.0,7.0,94,0.00,,,0.00,,2013-03-09 11:42:00,
2013-03-09 05:52:00,61.0,59.0,30.04,SSE,153,0.0,1.0,94,0.00,,,0.00,,2013-03-09 11:52:00,
2013-03-09 06:01:00,61.0,59.0,30.03,SSE,153,0.0,1.0,94,0.00,,,0.00,,2013-03-09 12:01:00,
2013-03-09 06:11:00,61.0,59.0,30.03,SSE,153,0.0,1.0,94,0.00,,,0.00,,2013-03-09 12:11:00,
2013-03-09 06:21:00,61.0,60.0,30.04,SE,142,0.0,1.0,95,0.00,,,0.00,,2013-03-09 12:21:00,
2013-03-09 06:32:00,61.0,59.0,30.04,SE,142,0.0,1.0,94,0.00,,,0.00,,2013-03-09 12:32:00,
2013-03-09 06:42:00,61.0,59.0,30.04,SE,142,0.0,1.0,94,0.00,,,0.00,,2013-03-09 12:42:00,
2013-03-09 06:52:00,61.0,60.0,30.04,SE,136,0.0,4.0,95,0.00,,,0.00,,2013-03-09 12:52:00,
2013-03-09 07:02:00,61.0,60.0,30.04,SSE,163,0.0,2.0,95,0.00,,,0.00,,2013-03-09 13:02:00,
2013-03-09 07:11:00,61.0,60.0,30.04,SSE,163,0.0,2.0,95,0.00,,,0.00,,2013-03-09 13:11:00,
2013-03-09 07:21:00,62.0,61.0,30.04,SE,145,0.0,2.0,95,0.00,,,0.00,,2013-03-09 13:21:00,
2013-03-09 07:31:00,62.0,61.0,30.04,SSE,147,0.0,2.0,96,0.00,,,0.00,,2013-03-09 13:31:00,
2013-03-09 07:42:00,62.0,61.0,30.04,SSE,147,0.0,2.0,96,0.00,,,0.00,,2013-03-09 13:42:00,
2013-03-09 07:52:00,62.0,61.0,30.03,SSE,156,1.0,7.0,96,0.00,,,0.00,,2013-03-09 13:52:00,
2013-03-09 08:01:00,62.0,61.0,30.03,SE,142,0.0,2.0,96,0.00,,,0.00,,2013-03-09 14:01:00,
2013-03-09 08:11:00,62.0,61.0,30.03,SE,142,0.0,2.0,96,0.00,,,0.00,,2013-03-09 14:11:00,
2013-03-09 08:21:00,63.0,62.0,30.04,SE,144,0.0,5.0,96,0.00,,,0.00,,2013-03-09 14:21:00,
2013-03-09 08:32:00,63.0,62.0,30.03,SE,145,0.0,5.0,95,0.00,,,0.00,,2013-03-09 14:32:00,
2013-03-09 08:42:00,63.0,62.0,30.03,SE,145,0.0,5.0,95,0.00,,,0.00,,2013-03-09 14:42:00,
2013-03-09 08:52:00,64.0,63.0,30.03,SE,131,1.0,9.0,95,0.00,,,0.00,,2013-03-09 14:52:00,
2013-03-09 09:01:00,64.0,62.0,30.03,SSE,150,0.0,9.0,94,0.00,,,0.00,,2013-03-09 15:01:00,
2013-03-09 09:11:00,64.0,62.0,30.03,SSE,150,0.0,9.0,94,0.00,,,0.00,,2013-03-09 15:11:00,
2013-03-09 09:22:00,64.0,62.0,30.02,SSE,152,1.0,10.0,93,0.00,,,0.00,,2013-03-09 15:22:00,
2013-03-09 09:31:00,65.0,63.0,30.01,SE,124,1.0,5.0,93,0.00,,,0.00,,2013-03-09 15:31:00,
2013-03-09 09:42:00,65.0,63.0,30.01,SE,124,1.0,5.0,93,0.00,,,0.00,,2013-03-09 15:42:00,
2013-03-09 09:52:00,65.0,63.0,30.03,South,182,0.0,9.0,92,0.00,,,0.00,,2013-03-09 15:52:00,
2013-03-09 10:01:00,65.0,63.0,30.03,SE,126,0.0,9.0,92,0.00,,,0.00,,2013-03-09 16:01:00,
2013-03-09 10:11:00,65.0,63.0,30.03,SE,126,0.0,9.0,92,0.00,,,0.00,,2013-03-09 16:11:00,
2013-03-09 10:21:00,65.0,62.0,30.04,SSE,151,2.0,6.0,91,0.00,,,0.00,,2013-03-09 16:21:00,
2013-03-09 10:32:00,65.0,62.0,30.04,SSE,149,0.0,5.0,91,0.00,,,0.00,,2013-03-09 16:32:00,
2013-03-09 10:41:00,65.0,62.0,30.04,SSE,149,0.0,5.0,91,0.00,,,0.00,,2013-03-09 16:41:00,
2013-03-09 10:52:00,66.0,63.0,30.04,South,178,2.0,5.0,91,0.00,,,0.00,,2013-03-09 16:52:00,
2013-03-09 11:01:00,66.0,63.0,30.04,SSE,155,0.0,12.0,89,0.00,,,0.00,,2013-03-09 17:01:00,
2013-03-09 11:11:00,66.0,63.0,30.04,SSE,155,0.0,12.0,89,0.00,,,0.00,,2013-03-09 17:11:00,
2013-03-09 11:22:00,67.0,63.0,30.03,ESE,120,0.0,9.0,87,0.00,,,0.00,,2013-03-09 17:22:00,
2013-03-09 11:32:00,68.0,64.0,30.03,SE,138,3.0,13.0,86,0.00,,,0.00,,2013-03-09 17:32:00,
2013-03-09 11:42:00,68.0,64.0,30.03,SE,138,3.0,13.0,86,0.00,,,0.00,,2013-03-09 17:42:00,
2013-03-09 11:52:00,68.0,63.0,30.03,South,169,0.0,8.0,84,0.00,,,0.00,,2013-03-09 17:52:00,
2013-03-09 12:01:00,70.0,65.0,30.02,SE,126,5.0,8.0,84,0.00,,,0.00,,2013-03-09 18:01:00,
2013-03-09 12:11:00,70.0,65.0,30.02,SE,126,5.0,8.0,84,0.00,,,0.00,,2013-03-09 18:11:00,
2013-03-09 12:21:00,74.0,65.0,30.01,SSE,156,2.0,14.0,73,0.00,,,0.00,,2013-03-09 18:21:00,
2013-03-09 12:31:00,74.0,64.0,30.01,SE,146,5.0,11.0,72,0.00,,,0.00,,2013-03-09 18:31:00,
2013-03-09 12:42:00,74.0,64.0,30.01,SE,146,5.0,11.0,72,0.00,,,0.00,,2013-03-09 18:42:00,
2013-03-09 12:52:00,74.0,65.0,29.99,SSE,149,2.0,8.0,73,0.00,,,0.00,,2013-03-09 18:52:00,
2013-03-09 13:01:00,74.0,64.0,29.99,SSE,152,3.0,11.0,70,0.00,,,0.00,,2013-03-09 19:01:00,
2013-03-09 13:11:00,74.0,64.0,29.99,SSE,152,3.0,11.0,70,0.00,,,0.00,,2013-03-09 19:11:00,
2013-03-09 13:22:00,74.0,64.0,29.98,SW,228,2.0,8.0,70,0.00,,,0.00,,2013-03-09 19:22:00,
2013-03-09 13:32:00,74.0,63.0,29.98,SE,141,2.0,12.0,68,0.00,,,0.00,,2013-03-09 19:32:00,
2013-03-09 13:42:00,74.0,63.0,29.98,SE,141,2.0,12.0,68,0.00,,,0.00,,2013-03-09 19:42:00,
2013-03-09 13:52:00,73.0,63.0,29.97,SE,145,1.0,13.0,70,0.00,,,0.00,,2013-03-09 19:52:00,
2013-03-09 14:01:00,73.0,63.0,29.96,SSE,153,6.0,12.0,70,0.00,,,0.00,,2013-03-09 20:01:00,
2013-03-09 14:11:00,73.0,63.0,29.96,SSE,153,6.0,12.0,70,0.00,,,0.00,,2013-03-09 20:11:00,
2013-03-09 14:21:00,72.0,63.0,29.96,East,89,5.0,12.0,73,0.00,,,0.00,,2013-03-09 20:21:00,
2013-03-09 14:32:00,71.0,63.0,29.95,SE,144,4.0,15.0,75,0.00,,,0.00,,2013-03-09 20:32:00,
2013-03-09 14:42:00,71.0,63.0,29.95,SE,144,4.0,15.0,75,0.00,,,0.00,,2013-03-09 20:42:00,
2013-03-09 14:52:00,71.0,63.0,29.93,SSE,147,4.0,13.0,76,0.00,,,0.00,,2013-03-09 20:52:00,
2013-03-09 15:02:00,71.0,62.0,29.93,SE,128,6.0,12.0,74,0.00,,,0.00,,2013-03-09 21:02:00,
2013-03-09 15:12:00,71.0,62.0,29.93,SE,128,6.0,12.0,74,0.00,,,0.00,,2013-03-09 21:12:00,
2013-03-09 15:21:00,72.0,64.0,29.93,SE,138,5.0,12.0,75,0.00,,,0.00,,2013-03-09 21:21:00,
2013-03-09 15:32:00,71.0,63.0,29.93,South,171,2.0,18.0,76,0.00,,,0.00,,2013-03-09 21:32:00,
2013-03-09 15:42:00,71.0,63.0,29.93,South,171,2.0,18.0,76,0.00,,,0.00,,2013-03-09 21:42:00,
2013-03-09 15:52:00,71.0,63.0,29.92,SSE,149,3.0,9.0,77,0.00,,,0.00,,2013-03-09 21:52:00,
2013-03-09 16:01:00,70.0,62.0,29.92,SE,139,2.0,11.0,77,0.00,,,0.00,,2013-03-09 22:01:00,
2013-03-09 16:11:00,70.0,62.0,29.92,SE,139,2.0,11.0,77,0.00,,,0.00,,2013-03-09 22:11:00,
2013-03-09 16:21:00,71.0,63.0,29.91,SSE,148,3.0,10.0,77,0.00,,,0.00,,2013-03-09 22:21:00,
2013-03-09 16:32:00,71.0,63.0,29.91,South,190,3.0,12.0,76,0.00,,,0.00,,2013-03-09 22:32:00,
2013-03-09 16:41:00,71.0,63.0,29.91,South,190,3.0,12.0,76,0.00,,,0.00,,2013-03-09 22:41:00,
2013-03-09 16:52:00,70.0,62.0,29.90,SE,132,1.0,9.0,77,0.00,,,0.00,,2013-03-09 22:52:00,
2013-03-09 17:01:00,70.0,62.0,29.90,SSE,155,2.0,11.0,77,0.00,,,0.00,,2013-03-09 23:01:00,
2013-03-09 17:11:00,70.0,62.0,29.90,SSE,155,2.0,11.0,77,0.00,,,0.00,,2013-03-09 23:11:00,
2013-03-09 17:21:00,70.0,62.0,29.91,SE,134,3.0,8.0,77,0.00,,,0.00,,2013-03-09 23:21:00,
2013-03-09 17:32:00,70.0,63.0,29.91,South,177,3.0,11.0,78,0.00,,,0.00,,2013-03-09 23:32:00,
2013-03-09 17:41:00,70.0,63.0,29.91,South,177,3.0,11.0,78,0.00,,,0.00,,2013-03-09 23:41:00,
2013-03-09 17:52:00,69.0,62.0,29.90,ESE,103,4.0,11.0,79,0.00,,,0.00,,2013-03-09 23:52:00,
2013-03-09 18:01:00,69.0,63.0,29.89,SE,137,1.0,9.0,80,0.00,,,0.00,,2013-03-10 00:01:00,
2013-03-09 18:11:00,69.0,63.0,29.89,SE,137,1.0,9.0,80,0.00,,,0.00,,2013-03-10 00:11:00,
2013-03-09 18:22:00,68.0,62.0,29.88,SSE,157,2.0,8.0,82,0.00,,,0.00,,2013-03-10 00:22:00,
2013-03-09 18:32:00,68.0,63.0,29.89,SE,126,1.0,8.0,83,0.00,,,0.00,,2013-03-10 00:32:00,
2013-03-09 18:42:00,68.0,63.0,29.89,SE,126,1.0,8.0,83,0.00,,,0.00,,2013-03-10 00:42:00,
2013-03-09 18:52:00,67.0,62.0,29.89,SSE,164,2.0,6.0,85,0.00,,,0.00,,2013-03-10 00:52:00,
2013-03-09 19:01:00,67.0,62.0,29.89,SE,132,1.0,8.0,85,0.00,,,0.00,,2013-03-10 01:01:00,
2013-03-09 19:11:00,67.0,62.0,29.89,SE,132,1.0,8.0,85,0.00,,,0.00,,2013-03-10 01:11:00,
2013-03-09 19:21:00,67.0,63.0,29.90,ESE,121,0.0,5.0,86,0.00,,,0.00,,2013-03-10 01:21:00,
2013-03-09 19:31:00,67.0,63.0,29.89,SSE,150,1.0,8.0,87,0.00,,,0.00,,2013-03-10 01:31:00,
2013-03-09 19:41:00,67.0,63.0,29.89,SSE,150,1.0,8.0,87,0.00,,,0.00,,2013-03-10 01:41:00,
2013-03-09 19:52:00,66.0,62.0,29.87,SE,134,2.0,8.0,88,0.00,,,0.00,,2013-03-10 01:52:00,
2013-03-09 20:01:00,66.0,62.0,29.87,SE,146,1.0,9.0,88,0.00,,,0.00,,2013-03-10 02:01:00,
2013-03-09 20:11:00,66.0,62.0,29.87,SE,146,1.0,9.0,88,0.00,,,0.00,,2013-03-10 02:11:00,
2013-03-09 20:22:00,66.0,63.0,29.86,East,98,1.0,10.0,90,0.00,,,0.00,,2013-03-10 02:22:00,
2013-03-09 20:32:00,65.0,62.0,29.87,SSE,150,0.0,9.0,90,0.00,,,0.00,,2013-03-10 02:32:00,
2013-03-09 20:42:00,65.0,62.0,29.87,SSE,150,0.0,9.0,90,0.00,,,0.00,,2013-03-10 02:42:00,
2013-03-09 20:52:00,66.0,63.0,29.87,SSE,148,1.0,9.0,91,0.00,,,0.00,,2013-03-10 02:52:00,
2013-03-09 21:01:00,66.0,63.0,29.87,South,175,1.0,9.0,91,0.00,,,0.00,,2013-03-10 03:01:00,
2013-03-09 21:11:00,66.0,63.0,29.87,SSE,152,4.0,12.0,91,0.00,,,0.00,,2013-03-10 03:11:00,
2013-03-09 21:22:00,66.0,63.0,29.87,SSE,152,4.0,12.0,91,0.00,,,0.00,,2013-03-10 03:22:00,
2013-03-09 21:32:00,65.0,62.0,29.87,SE,146,2.0,6.0,91,0.00,,,0.00,,2013-03-10 03:32:00,
2013-03-09 21:42:00,65.0,62.0,29.87,SE,146,2.0,6.0,91,0.00,,,0.00,,2013-03-10 03:42:00,
2013-03-09 21:52:00,66.0,64.0,29.86,SE,133,3.0,10.0,92,0.00,,,0.00,,2013-03-10 03:52:00,
2013-03-09 22:01:00,66.0,64.0,29.85,SE,136,2.0,8.0,92,0.00,,,0.00,,2013-03-10 04:01:00,
2013-03-09 22:11:00,66.0,64.0,29.85,SE,136,2.0,8.0,92,0.00,,,0.00,,2013-03-10 04:11:00,
2013-03-09 22:21:00,66.0,63.0,29.85,ESE,106,1.0,8.0,91,0.00,,,0.00,,2013-03-10 04:21:00,
2013-03-09 22:31:00,66.0,63.0,29.85,SE,135,1.0,11.0,91,0.00,,,0.00,,2013-03-10 04:31:00,
2013-03-09 22:42:00,66.0,63.0,29.85,SE,135,1.0,11.0,91,0.00,,,0.00,,2013-03-10 04:42:00,
2013-03-09 22:52:00,66.0,63.0,29.85,SE,140,1.0,7.0,91,0.00,,,0.00,,2013-03-10 04:52:00,
2013-03-09 23:01:00,66.0,63.0,29.84,ENE,78,1.0,6.0,91,0.00,,,0.00,,2013-03-10 05:01:00,
2013-03-09 23:11:00,66.0,63.0,29.84,ENE,78,1.0,6.0,91,0.00,,,0.00,,2013-03-10 05:11:00,
2013-03-09 23:22:00,66.0,64.0,29.87,SSE,152,2.0,6.0,92,0.00,,,0.00,,2013-03-10 05:22:00,
2013-03-09 23:31:00,66.0,64.0,29.87,SE,139,0.0,5.0,92,0.00,,,0.00,,2013-03-10 05:31:00,
2013-03-09 23:42:00,66.0,64.0,29.86,SSE,157,2.0,6.0,92,0.00,,,0.00,,2013-03-10 05:42:00,
2013-03-09 23:52:00,66.0,64.0,29.86,SSE,157,2.0,6.0,92,0.00,,,0.00,,2013-03-10 05:52:00,